OPS 4682 DEB, 18783

Orbit data source: Space-Track

OPS 4682 DEB, 18783 is space debris in LEO originally from a launch on Sat, 03 Apr 1965 UTC launched from the Air Force Western Test Range (AFWTR). Debris objects in space refer to the collection of defunct objects orbiting the Earth. Examples of debris include non-operational satellites, rocket bodies, and fragments generated from explosions, collisions, or faulty payload assembly.

Loading next visibility...
Identifier
18783, 1965-027AK
Orbit
LEO
Last TLE update
2 days ago
Origin
Manufacturer
Unknown
Mission
Spacecraft
Bus & Motor
Unknown
Mass
Unknown
Launch date (UTC)
1965-04-03 (60 years ago)
Launch vehicle
Unknown
Launch site
Air Force Western Test Range (AFWTR)
Object type
Payload
Rocket body
Debris
Shape & HBR
Unknown
Radar Cross Section
Small (<0.1 m²)

Expand to show TLE details & history

TLE from 2 days ago
0 OPS 4682 DEB
1 18783U 65027AK  25127.15011139  .00000063  00000-0  18233-3 0  9994
2 18783  90.2569  16.5321 0025577 198.7034 316.7588 13.00586167527690
Epoch: 2025-05-07T03:36Z
Definitive object data (Epoch: 2025-05-07T03:36:09.624Z)
Latitude
24.76294°
Longitude
-82.62919°
Altitude
1,248.575 km
Speed
7.24 km/s
True Right ascension
13h 06m 36s
True Declination
24° 38' 27"
Sunlit
Object was in full shadow at TLE epoch
Visualization TLE readout
Latitude
53.79654°
Longitude
96.95432°
Altitude
1,283.475 km
Speed
7.212 km/s
Apparent Right ascension
02h 02m 29s
Apparent Declination
12° 50' 39"
Sunlit
Object is in daylight
Visualization observer readout
Local Sidereal Time
14:55:41
Azimuth
16.054° NNE
Elevation
-35.81°
Doppler factor
1
Orbital elements
Apogee altitude
1,276.445 km
Perigee altitude
1,237.389 km
Semi-major axis
7,635.054 km
Eccentricity
0.0025577
Inclination
90.2569°
RAAN
16.5321°
Arg. of periapsis
198.7034°
True anomaly
316.55754°
Mean anomaly
316.7588°
Eccentric anomaly
316.65822°
Mean motion
3.25331 °/min
BSTAR
0.00018233
Orbital period
110.66 mins
Loading maneuver chart data...
Loading SW <> Apogee altitude chart data...
Loading historical data...
Loading historical data...
Loading historical data...
Loading historical data...
Loading historical data...
Loading historical data...
Loading historical data...

OPS 4682 DEB Visibility forecast

Observer location: undefined°, undefined°

Span
Click to sort rows by Start time (UTC) header in descending order
Start Az.
Max El. time (UTC)
Max El. Az.
Max El.
End time (UTC)
End Az.
12 mins2025-05-09 15:50:48.095Z138.199° SSE2025-05-09 15:56:48.095Z79.461° E31.33°2025-05-09 16:02:48.095Z16.964° NNE
12 mins2025-05-09 17:41:48.095Z212.771° SW2025-05-09 17:46:48.095Z266.226° W33.077°2025-05-09 17:53:48.095Z341.505° N
9 mins2025-05-10 03:27:48.095Z40.048° NE2025-05-10 03:31:48.095Z80.998° E22.674°2025-05-10 03:36:48.095Z127.981° SE
13 mins2025-05-10 05:16:48.095Z351.985° N2025-05-10 05:22:48.095Z271.377° WNW40.728°2025-05-10 05:29:48.095Z201.217° SSW
|